Flag for Brazil Weather past 2 weeks in Rio Branco, Acre, Brazil

Now
73 °F

Partly sunny.


Feels Like: 70 °F
Forecast: 71 / 85 °F
Wind: 5 mph from Southwest

Location: Rio Branco Airport

Current Time: Mar 29, 2015 at 8:51:32 AM

Latest Report: Mar 29, 2015 at 8:00 AM


Visibility: N/A

Pressure: 30.04 "Hg

Humidity: 94%

Dew point: 72 °F

Location of Rio BrancoLocation

Historic Weather in Rio Branco — Graph

°F

Rio Branco temperature yesterday

Maximum temperature yesterday: 77 °F (at 12:00 PM)
Minimum temperature yesterday: 72 °F (at 6:00 AM)
Average temperature yesterday: 74 °F

Past Weeks' High & Low Weather Summary

 TemperatureHumidityPressure
High91 °F (Mar 27, 3:00 PM)100% (Mar 14, 7:00 AM)30.07 "Hg (Mar 14, 7:00 AM)
Low39 °F (Mar 18, 5:00 PM)59% (Mar 26, 3:00 PM)29.68 "Hg (Mar 14, 4:00 PM)
Average77 °F90%29.88 "Hg
* Reported Mar 14 7:00 AM — Mar 29 7:00 AM, Rio Branco, Weather by CustomWeather, © 2015

Note: Actual official high and low records may vary slightly from our data, if they occured in-between our weather recording intervals... More about our weather records

Advertising

Rio Branco weather history for previous 24 hours

 ConditionsComfort  
Time TempWeatherWind HumidityBarometerVisibility
7:00 AM
Sun, Mar 29
72 °FBroken clouds.3 mph100%30.04 "HgN/A
6:00 AM72 °FPartly cloudy.2 mph94%29.98 "HgN/A
5:00 AM72 °FPassing clouds.No wind94%29.98 "HgN/A
4:00 AM72 °FPassing clouds.6 mph94%29.95 "HgN/A
3:00 AM72 °FPassing clouds.6 mph94%29.95 "HgN/A
2:00 AM72 °FPassing clouds.6 mph94%29.95 "HgN/A
1:00 AM72 °FPassing clouds.2 mph94%29.98 "HgN/A
12:00 AM72 °FPassing clouds.2 mph100%29.98 "HgN/A
11:00 PM
Sat, Mar 28
73 °FPassing clouds.2 mph94%29.98 "HgN/A
10:00 PM73 °FPassing clouds.3 mph94%30.01 "HgN/A
9:00 PM73 °FPassing clouds.3 mph94%29.98 "HgN/A
8:00 PM73 °FPartly cloudy.5 mph94%29.95 "HgN/A
7:00 PM73 °FPartly cloudy.3 mph94%29.95 "HgN/A
6:00 PM73 °FBroken clouds.2 mph94%29.92 "HgN/A
5:00 PM73 °FBroken clouds.No wind94%29.92 "Hg24 mi
4:00 PM75 °FBroken clouds.2 mph89%29.92 "HgN/A
3:00 PM75 °FPartly sunny.3 mph89%29.92 "HgN/A
2:00 PM75 °FPartly sunny.3 mph89%29.95 "HgN/A
1:00 PM75 °FBroken clouds.5 mph89%29.95 "HgN/A
12:00 PM77 °FPartly sunny.3 mph83%30.01 "HgN/A
11:00 AM75 °FPartly sunny.6 mph89%30.04 "HgN/A
10:00 AM75 °FPartly sunny.6 mph89%30.04 "HgN/A
9:00 AM73 °FBroken clouds.7 mph94%30.07 "HgN/A
8:00 AM73 °FMixture of precip. Broken clouds.6 mph94%30.04 "Hg4 mi
Weather by CustomWeather, © 2015

See weather overviewHow to use our weather pages